Regional Weather Roundup
Issued by NWS Little Rock, AR

Home | Current Version | Previous Version | Text Only | Print | Product List | Glossary Off
Versions: 1 2 3 4 5 6 7 8 9 10 11 12 13 14 15 16 17 18 19 20 21 22 23 24 25 26 27 28 29 30 31 32 33 34 35 36 37 38 39 40 41 42 43 44 45 46 47 48 49 50

000
ASUS44 KLZK 271405
RWRLZK

WEATHER ROUNDUP FOR ARKANSAS
NATIONAL WEATHER SERVICE LITTLE ROCK AR
800 AM CST THU NOV 27 2014

NOTE: "FAIR" INDICATES FEW OR NO CLOUDS BELOW 12,000 FEET WITH NO
SIGNIFICANT WEATHER AND/OR OBSTRUCTIONS TO VISIBILITY.

ARZ001-003-010-029-271500-
NORTHWEST ARKANSAS

CITY           SKY/WX    TMP DP  RH WIND       PRES   REMARKS
FAYETTEVILLE   CLOUDY    25  23  92 CALM      30.50R
FORT SMITH     CLEAR     32  24  72 W14       30.54R WCI  22
HARRISON       CLOUDY    30  24  78 N3        30.46R
BENTONVILLE    CLOUDY    27  21  80 CALM      30.49R
ROGERS         CLOUDY    25  23  92 CALM      30.49R
SILOAM SPGS    CLEAR     25  18  74 NW5       30.52R WCI  19
HIGHFILL       CLOUDY    26  23  88 W5        30.49R WCI  20
SPRINGDALE     CLEAR     27  23  86 NE7       30.50R WCI  19
$$

ARZ004-005-016-271500-
NORTH CENTRAL ARKANSAS

CITY           SKY/WX    TMP DP  RH WIND       PRES   REMARKS
BATESVILLE     MOSUNNY   36  25  64 NW6       30.48R
FLIPPIN        CLOUDY    34  21  60 N5        30.49S WCI  30
MTN HOME       CLOUDY    33  25  72 VRB5      30.47R WCI  29
$$

ARZ040-041-271500-
WEST CENTRAL ARKANSAS

CITY           SKY/WX    TMP DP  RH WIND       PRES   REMARKS
MENA           CLEAR     34  28  80 CALM      30.48S
MOUNT IDA      CLEAR     34  25  69 CALM      30.47R
$$

ARZ009-017-025-026-028-271500-
NORTHEAST ARKANSAS

CITY           SKY/WX    TMP DP  RH WIND       PRES   REMARKS
CORNING        PTSUNNY   36  32  87 NW6       30.48R
JONESBORO      SUNNY     38  29  70 NW8       30.47R
NEWPORT        CLOUDY    38  28  67 N16       30.48F
WALNUT RIDGE   MOSUNNY   36  27  69 NW6       30.48R
BLYTHEVILLE    MOSUNNY   42  32  67 NW14      30.46R
$$

ARZ022-023-033-042-044-271500-
CENTRAL ARKANSAS

CITY           SKY/WX    TMP DP  RH WIND       PRES   REMARKS
LITTLE ROCK    MOSUNNY   37  26  64 NW3       30.51R
N LITTLE ROCK  MOSUNNY   34  28  77 NW2       30.51R
JACKSONVILLE   SUNNY     35  26  69 SW7       30.50R WCI  29
SEARCY         CLOUDY    34  28  79 CALM      30.51R
HOT SPRINGS    SUNNY     35  28  75 CALM      30.49R
RUSSELLVILLE   CLEAR     29  25  85 CALM      30.50R
CLINTON        FAIR      32  27  80 NW3       30.50R
$$

ARZ036-271500-
EAST ARKANSAS

CITY           SKY/WX    TMP DP  RH WIND       PRES   REMARKS
WEST MEMPHIS   PTSUNNY   37  31  78 N6        30.46R
$$

ARZ050-053-066-070-073-271500-
SOUTHWEST ARKANSAS

CITY           SKY/WX    TMP DP  RH WIND       PRES   REMARKS
ARKADELPHIA    FAIR      37  29  73 NW3       30.53R
CAMDEN         SUNNY     37  28  70 MISG      30.52R
TEXARKANA      SUNNY     39  27  62 NW12      30.52R
EL DORADO      SUNNY     38  29  70 NW6       30.51R
DE QUEEN       CLEAR     33  28  81 W3        30.52R
$$

ARZ056-057-069-271500-
SOUTHEAST ARKANSAS

CITY           SKY/WX    TMP DP  RH WIND       PRES   REMARKS
PINE BLUFF     FLURRIES  37  27  67 N8        30.50R
STUTTGART      PTSUNNY   36  28  75 W3        30.51R
MONTICELLO     SUNNY     38  29  70 VRB5      30.50R

$$




USA.gov is the U.S. government's official web portal to all federal, state and local government web resources and services.